Weather History for Chadron, NE

Change the Weather History Date:

Friday, March 28, 2014

  Actual Average Record
Temperature  
Mean Temperature 32 °F 39 °F  
Max Temperature 42 °F 54 °F 82 °F (1946)
Min Temperature 21 °F 24 °F -12 °F (1931)
Degree Days  
Heating Degree Days 33 26  
Month to date heating degree days 831 830  
Since 1 July heating degree days 6305 6082  
Cooling Degree Days 0 0  
Month to date cooling degree days 0 0  
Year to date cooling degree days 0 0  
Moisture  
Dew Point 25 °F    
Average Humidity 73    
Maximum Humidity 92    
Minimum Humidity 53    
Precipitation  
Precipitation T in 0.05 in 0.42 in (1977)
Month to date precipitation 0.24 1.10  
Year to date precipitation 1.26 2.07  
Sea Level Pressure  
Sea Level Pressure 30.03 in    
Wind  
Wind Speed 6 mph (NNW)    
Max Wind Speed 13 mph    
Max Gust Speed 15 mph    
Visibility 8 miles    
Events Snow    
T = Trace of Precipitation, MM = Missing Value Source: NWS Daily Summary

Daily Weather History Graph

Daily Weather History Graph

Search for Another Location

Airport:

Trip Planner

Search our weather history database for the weather conditions in past years. The results will help you decide how hot, cold, wet, or windy it might be!

Date:

Astronomy

Mar. 28, 2014 Rise Set
Actual Time 6:41 AM MDT 7:14 PM MDT
Civil Twilight 6:13 AM MDT 7:42 PM MDT
Nautical Twilight 5:39 AM MDT 8:16 PM MDT
Astronomical Twilight 5:04 AM MDT 8:50 PM MDT
Moon 5:16 AM MDT (3/28) 5:10 PM MDT (3/28)
Length of Visible Light 13h 29m
Length of Day
12h 32m
Waning Crescent, 6% of the Moon is Illuminated
Mar 28
Waning Crescent
Mar 30
New
Apr 7
First Quarter
Apr 15
Full
Apr 22
Last Quarter

Hourly Weather History & Observations

Time (MDT) Temp. Windchill Dew Point Humidity Pressure Visibility Wind Dir Wind Speed Gust Speed Precip Events Conditions
12:53 AM 34.0 °F 27.2 °F 24.1 °F 67% 29.88 in 10.0 mi East 8.1 mph - N/A   Overcast
1:53 AM 32.0 °F 24.8 °F 25.0 °F 75% 29.88 in 10.0 mi ESE 8.1 mph - N/A   Scattered Clouds
2:53 AM 30.0 °F - 24.1 °F 79% 29.87 in 10.0 mi Calm Calm - N/A   Scattered Clouds
3:53 AM 28.9 °F 25.2 °F 24.1 °F 82% 29.85 in 10.0 mi SSE 3.5 mph - N/A   Clear
4:53 AM 27.0 °F 21.6 °F 25.0 °F 92% 29.85 in 8.0 mi SSW 4.6 mph - N/A   Clear
5:53 AM 27.0 °F 16.7 °F 24.1 °F 89% 29.89 in 8.0 mi WSW 11.5 mph - N/A   Clear
6:53 AM 27.0 °F 21.6 °F 24.1 °F 89% 29.93 in 6.0 mi West 4.6 mph - N/A   Mostly Cloudy
7:06 AM 26.6 °F 21.2 °F 24.8 °F 93% 29.83 in 3.0 mi WNW 4.6 mph - N/A   Mostly Cloudy
7:14 AM 26.6 °F 21.2 °F 24.8 °F 93% 29.84 in 2.0 mi WNW 4.6 mph - 0.00 in Snow Light Snow
7:43 AM 28.4 °F 24.6 °F 26.6 °F 93% 29.86 in 3.0 mi West 3.5 mph - 0.00 in   Overcast
7:53 AM 28.0 °F 22.8 °F 26.1 °F 92% 29.97 in 3.0 mi West 4.6 mph - 0.00 in   Overcast
8:12 AM 28.4 °F 21.2 °F 26.6 °F 93% 29.88 in 2.5 mi WNW 6.9 mph - N/A   Overcast
8:24 AM 30.2 °F 24.3 °F 26.6 °F 86% 29.89 in 3.0 mi NW 5.8 mph - N/A   Overcast
8:53 AM 30.9 °F 23.5 °F 27.0 °F 85% 30.01 in 7.0 mi NW 8.1 mph - N/A   Overcast
9:43 AM 32.0 °F 24.8 °F 26.6 °F 80% 29.94 in 8.0 mi NW 8.1 mph - N/A   Overcast
9:53 AM 32.0 °F 24.2 °F 27.0 °F 82% 30.06 in 8.0 mi NW 9.2 mph - N/A   Overcast
10:53 AM 34.0 °F 25.5 °F 27.0 °F 75% 30.09 in 10.0 mi North 11.5 mph - N/A   Overcast
11:53 AM 34.0 °F 25.5 °F 27.0 °F 75% 30.12 in 10.0 mi North 11.5 mph - N/A   Overcast
12:53 PM 35.1 °F 28.6 °F 26.1 °F 70% 30.13 in 10.0 mi NNE 8.1 mph - N/A   Overcast
1:53 PM 37.0 °F 30.4 °F 27.0 °F 67% 30.15 in 10.0 mi NNE 9.2 mph - N/A   Overcast
2:43 PM 39.2 °F 32.0 °F 26.6 °F 61% 30.06 in 10.0 mi NNE 11.5 mph - N/A   Scattered Clouds
2:53 PM 39.0 °F 33.4 °F 27.0 °F 62% 30.16 in 10.0 mi NNE 8.1 mph - N/A   Scattered Clouds
3:53 PM 42.1 °F 36.6 °F 27.0 °F 55% 30.16 in 10.0 mi NNE 9.2 mph - N/A   Clear
4:53 PM 41.0 °F 38.0 °F 27.0 °F 57% 30.17 in 10.0 mi NNE 4.6 mph - N/A   Clear
5:53 PM 39.9 °F 35.8 °F 27.0 °F 60% 30.18 in 10.0 mi ENE 5.8 mph - N/A   Clear
6:53 PM 37.9 °F 32.7 °F 26.1 °F 62% 30.19 in 10.0 mi East 6.9 mph - N/A   Clear
7:53 PM 30.9 °F 27.5 °F 24.1 °F 76% 30.22 in 10.0 mi East 3.5 mph - N/A   Clear
8:53 PM 28.9 °F 23.9 °F 23.0 °F 78% 30.23 in 10.0 mi NNE 4.6 mph - N/A   Clear
9:53 PM 26.1 °F - 21.9 °F 84% 30.24 in 10.0 mi Calm Calm - N/A   Clear
10:53 PM 25.0 °F - 21.0 °F 85% 30.24 in 10.0 mi Calm Calm - N/A   Clear
11:53 PM 23.0 °F 17.0 °F 19.9 °F 88% 30.23 in 10.0 mi WSW 4.6 mph - N/A   Clear